Notices

What's New in latest Release from April 7th, 2021:

- Updated Glossary, including Speed of Maximum Gust, and Total Hourly Precipitation

- Updated national and regional climate services offices contacts and prices information

- Addition of station inventory lists for 1981-2010, 1971-2000, and 1961-1990 Normals.

If you haven't already, please take our survey and provide feedback about our website: https://eccc.sondage-survey.ca/f/LanguageSelection.aspx?s=442ca660-fcf1-47c0-95a9-59707d6fd709

Hourly Data Report for August 03, 2017

TORONTO CITY
ONTARIO

43°40'00.000" N
79°24'00.000" W
112.50 m
6158355
71508
XTO

Download Data

Hourly Data (August 2017)
Hourly Data Report for August 3, 2017
TIME
LST
Temp Definition
°C
Dew Point Definition
°C
Rel Hum Definition
%
Precip. Amount Definition
mm

Wind Dir Definition
10's deg

Wind Spd Definition
km/h
Visibility Definition
km
Stn Press Definition
kPa
Hmdx Definition


Wind Chill Definition


Weather Definition


00:00 21.4 17.4 78 0.0 LegendMM LegendMM   100.35 27   LegendNANA
01:00 21.3 18.4 84 0.0 LegendMM LegendMM   100.34 28   LegendNANA
02:00 21.2 17.4 79 0.0 LegendMM LegendMM   100.33 27   LegendNANA
03:00 20.4 18.0 86 0.0 LegendMM LegendMM   100.30 26   LegendNANA
04:00 19.9 17.6 87 0.0 LegendMM LegendMM   100.29     LegendNANA
05:00 19.8 17.6 88 0.0 LegendMM LegendMM   100.38     LegendNANA
06:00 20.0 17.7 86 0.0 LegendMM LegendMM   100.43 26   LegendNANA
07:00 21.2 17.6 80 0.0 LegendMM LegendMM   100.43 27   LegendNANA
08:00 23.0 18.3 75 0.0 LegendMM LegendMM   100.47 29   LegendNANA
09:00 24.3 18.1 68 0.0 LegendMM LegendMM   100.47 30   LegendNANA
10:00 25.3 18.0 64 0.0 LegendMM LegendMM   100.48 31   LegendNANA
11:00 26.7 19.0 63 0.0 LegendMM LegendMM   100.46 33   LegendNANA
12:00 26.5 17.5 58 0.0 LegendMM LegendMM   100.41 32   LegendNANA
13:00 27.5 16.8 52 0.0 LegendMM LegendMM   100.33 33   LegendNANA
14:00 27.1 15.5 49 0.0 LegendMM LegendMM   100.27 31   LegendNANA
15:00 26.4 16.6 55 0.0 LegendMM LegendMM   100.22 31   LegendNANA
16:00 26.6 18.8 62 0.0 LegendMM LegendMM   100.17 33   LegendNANA
17:00 26.1 18.7 64 0.0 LegendMM LegendMM   100.18 33   LegendNANA
18:00 24.7 19.5 73 0.0 LegendMM LegendMM   100.17 32   LegendNANA
19:00 24.0 19.5 76 0.0 LegendMM LegendMM   100.17 31   LegendNANA
20:00 23.9 17.6 68 0.0 LegendMM LegendMM   100.15 30   LegendNANA
21:00 23.2 17.7 71 0.0 LegendMM LegendMM   100.15 29   LegendNANA
22:00 22.4 18.0 76 0.0 LegendMM LegendMM   100.06 28   LegendNANA
23:00 22.0 16.7 72 0.0 LegendMM LegendMM   99.97 27   LegendNANA

Notes on Data Quality.

Legend

  • E = Estimated
  • M = Missing
  • NA = Not Available*
  • [empty] = Indicates an unobserved value
Date modified: